#timestamp,LO_Frequency,Hit,StdDev 
1585386015.5,286047003.8,N
1585386035.4,286047003.5,N
1585386055.2,286047006.0,N
1585386075.1,286047003.2,N
1585386076.0,286047003.2,N
1585386095.8,286047003.7,N
1585386115.7,286047002.4,N
1585386135.5,286047004.0,N
1585386155.3,286047001.4,N
1585386175.2,286046999.7,N
1585386195.0,286046999.7,N
1585386195.9,286046999.7,N
1585386215.8,286047000.5,N
1585386235.6,286047000.8,N
1585386255.4,286047000.3,N
1585386275.3,286046999.7,N
1585386295.1,286047001.1,N
1585386315.8,286046998.5,N
1585386335.7,286047000.7,N
1585386355.5,286046998.9,N
1585386375.4,286046999.0,N
1585386395.2,286046998.4,N
1585386415.0,286047001.2,N
1585386415.9,286047001.2,N
1585386435.8,286046998.2,N
1585386455.6,286046999.3,N
1585386475.4,286047001.6,N
1585386495.3,286047017.0,Y
1585386515.1,286047016.8,P
1585386535.9,286047013.2,N
1585386555.7,286047013.7,N
1585386575.5,286047008.7,N
1585386595.4,286047003.0,N
1585386615.2,286047003.1,N
1585386635.1,286047002.1,N
1585386636.0,286047002.1,N
1585386655.8,286047002.8,N
1585386675.6,286046999.3,N
1585386695.5,286046999.2,N
1585386715.3,286046996.8,N
1585386735.1,286046994.9,N
1585386755.9,286046995.9,N
1585386775.7,286046993.5,N
1585386795.6,286046994.0,N
1585386815.4,286046994.5,N
1585386835.2,286046990.9,N
1585386855.1,286046991.2,N
1585386856.0,286046991.2,N
1585386875.8,286046993.1,N
1585386895.7,286046990.5,N
1585386915.5,286046992.1,N
1585386935.3,286046996.2,N
1585386955.2,286046993.8,N
1585386975.9,286046994.4,N
1585386995.7,286046994.4,N
1585387015.6,286046994.3,N
1585387035.4,286046993.5,N
1585387055.3,286046996.0,N
1585387075.1,286046993.4,N
1585387076.0,286046993.4,N
1585387095.8,286046993.7,N
1585387115.7,286046993.6,N
1585387135.5,286046993.5,N
1585387155.3,286046994.3,N
1585387175.2,286046993.6,N
1585387195.0,286046995.6,N
1585387195.9,286046995.6,N
1585387215.8,286046996.4,N
1585387235.6,286046994.6,N
1585387255.4,286046996.0,N
1585387275.3,286046995.6,N
1585387295.1,286046996.3,N
1585387315.9,286046995.0,Y
1585387335.7,286047001.4,P
1585387355.5,286047002.4,N
1585387375.4,286047001.8,N
1585387395.2,286047004.0,N
1585387415.1,286046999.7,N
1585387416.0,286046999.7,N
1585387435.8,286047002.1,N
1585387455.6,286047002.5,N
1585387475.5,286047002.7,N
1585387495.3,286047001.9,N
1585387515.1,286047000.4,N
1585387535.9,286047000.8,N
1585387555.7,286046999.8,N
1585387575.6,286047001.6,N
1585387595.4,286046998.3,N
1585387615.2,286046996.1,N
1585387635.1,286046998.3,N
1585387636.0,286046998.3,N
1585387655.8,286046999.7,N
1585387675.6,286047001.5,N
1585387695.5,286047001.7,N
1585387715.3,286047005.8,N
1585387735.2,286047003.3,N
1585387755.9,286047005.1,N
1585387775.7,286047004.5,N
1585387795.6,286047005.5,N
1585387815.4,286047006.4,N
1585387835.3,286047005.8,N
1585387855.1,286047001.7,N
1585387856.0,286047001.7,N
1585387875.8,286047001.6,N
1585387895.7,286047002.8,N
1585387915.5,286046999.9,N
1585387935.3,286047000.7,N
1585387955.2,286047000.7,N
1585387975.0,286047001.9,N
1585387975.9,286047001.9,N
1585387995.8,286047003.3,N
1585388015.6,286047003.1,N
1585388035.4,286047006.0,N
1585388055.3,286047006.0,N
1585388075.1,286047005.5,N
1585388095.9,286047005.6,N
1585388115.7,286047002.5,N
1585388135.5,286047004.3,N
1585388155.4,286047001.5,N
1585388175.2,286047001.6,N
1585388195.0,286047003.6,N
1585388195.9,286047003.6,N
1585388215.8,286047005.7,N
1585388235.6,286047007.5,Y
1585388255.5,286047001.6,P
1585388275.3,286047004.2,P
1585388295.1,286047002.7,N
1585388315.9,286047000.0,N
1585388335.7,286047001.4,N
1585388355.6,286047002.3,N
1585388375.4,286047000.2,N
1585388395.2,286047000.6,N
1585388415.1,286047002.2,N
1585388416.0,286047002.2,N
1585388435.8,286047001.6,N
1585388455.6,286047001.4,N
1585388475.5,286047002.7,N
1585388495.3,286046999.8,N
1585388515.2,286047002.6,N
1585388535.9,286047001.4,N
1585388555.7,286047004.1,Y
1585388575.6,286047000.7,P
1585388595.4,286047000.8,N
1585388615.3,286047000.4,N
1585388635.1,286046998.3,Y
1585388655.9,286046996.6,P
1585388675.7,286046995.9,N
1585388695.5,286046996.2,N
1585388715.4,286046995.3,N
1585388735.2,286046994.9,N
1585388755.0,286046995.8,N
1585388756.0,286046995.8,N
1585388775.8,286046997.6,N
1585388795.6,286046998.8,N
1585388815.5,286046996.5,N
1585388835.3,286046996.9,N
1585388855.2,286046999.2,N
1585388875.9,286046998.9,N
1585388895.7,286046999.1,N
1585388915.6,286046999.0,N
1585388935.4,286046996.6,N
1585388955.3,286046996.8,N
1585388975.1,286046999.3,N
1585388976.0,286046999.3,N
1585388995.8,286046996.9,N
1585389015.7,286046998.5,N
1585389035.5,286047011.9,Y
1585389055.4,286047003.6,P
1585389075.2,286047003.4,N
1585389095.0,286047003.7,N
1585389095.9,286047003.7,N
1585389115.8,286047004.0,N
1585389135.6,286047002.6,N
1585389155.5,286046999.8,N
1585389175.3,286047002.6,N
1585389195.1,286047002.3,N
1585389215.9,286047002.0,N
1585389235.7,286047003.5,N
1585389255.5,286047003.4,N
1585389275.4,286047004.0,N
1585389295.2,286047005.5,Y
1585389315.1,286046999.7,P
1585389316.0,286046999.7,N
1585389335.8,286047000.8,N
1585389355.6,286047002.8,N
1585389375.5,286046998.6,N
1585389395.3,286047000.1,N
1585389415.2,286046999.7,N
1585389435.9,286046998.5,N
1585389455.7,286047000.9,N
1585389475.6,286046999.8,N
1585389495.4,286047000.1,N
1585389515.2,286046999.7,N
1585389535.1,286047000.4,N
1585389536.0,286047000.4,N
1585389555.8,286047001.5,N
1585389575.7,286047001.3,N
1585389595.5,286047002.0,N
